カタログに戻る

THOR ABLESTAR DEB

運用中LEO
NORAD 120·DEBRIS·🇺🇸 United States

打ち上げ Jun 29, 1961 から Cape Canaveral Space Force Station

Loading…

次のパス (今後24時間)

TLE

最新Source: Space-Track

元期: Sep 14, 2026, 13:38 UTC

1 00120U 61015E   26257.56813118  .00000428  00000-0  18633-3 0  9999
2 00120  66.7046 197.9129 0116753 298.1721  60.7622 14.29677498361106

AllMySatでTHOR ABLESTAR DEBをリアルタイム追跡

Download on the App Store